• En España
  • Lista de países
  • Para 7 días
  • Temperatura del agua
  • Mapa Satelital
  • El tiempo en el mapa
  • Informadores
  • user-avatar
    Iniciar sesión

    Tiempo cada hora Annaba

    Hoy, 24 Septiembre, Domingo

    Tiempo Temperatura Precipitaciones Viento Presión Humedad
    00:00 +26°C° 0 mm 1 mps 761 mmHg 61%
    01:00 +26°C° 0 mm 1 mps 761 mmHg 60%
    02:00 +26°C° 0 mm 1 mps 761 mmHg 61%
    03:00 +25°C° 0 mm 2 mps 761 mmHg 63%
    04:00 +25°C° 0 mm 2 mps 761 mmHg 64%
    05:00 +25°C° 0 mm 2 mps 761 mmHg 67%
    06:00 +24°C° 0 mm 2 mps 761 mmHg 70%
    07:00 +24°C° 0 mm 2 mps 761 mmHg 73%
    08:00 +25°C° 0 mm 2 mps 762 mmHg 70%
    09:00 +26°C° 0 mm 3 mps 762 mmHg 67%
    10:00 +28°C° 0 mm 3 mps 762 mmHg 64%
    11:00 +28°C° 0 mm 3 mps 762 mmHg 63%
    12:00 +28°C° 0 mm 4 mps 762 mmHg 61%
    13:00 +29°C° 0 mm 5 mps 762 mmHg 60%
    14:00 +29°C° 0 mm 5 mps 762 mmHg 59%
    15:00 +28°C° 0 mm 4 mps 762 mmHg 58%
    16:00 +28°C° 0 mm 4 mps 762 mmHg 57%
    17:00 +27°C° 0 mm 4 mps 762 mmHg 62%
    18:00 +26°C° 0 mm 3 mps 763 mmHg 67%
    19:00 +24°C° 0 mm 3 mps 763 mmHg 72%
    20:00 +24°C° 0 mm 2 mps 763 mmHg 75%
    21:00 +23°C° 0 mm 2 mps 764 mmHg 79%
    22:00 +23°C° 0 mm 2 mps 764 mmHg 82%
    23:00 +21°C° 0 mm 2 mps 764 mmHg 84%

    Mañana, 25 Septiembre, Lunes

    Tiempo Temperatura Precipitaciones Viento Presión Humedad
    00:00 +21°C° 0 mm 2 mps 764 mmHg 85%
    01:00 +21°C° 0 mm 2 mps 764 mmHg 87%
    02:00 +20°C° 0 mm 2 mps 763 mmHg 86%
    03:00 +20°C° 0 mm 2 mps 763 mmHg 86%
    04:00 +20°C° 0 mm 2 mps 763 mmHg 86%
    05:00 +20°C° 0 mm 2 mps 762 mmHg 83%
    06:00 +20°C° 0 mm 2 mps 762 mmHg 79%
    07:00 +20°C° 0 mm 2 mps 762 mmHg 76%
    08:00 +23°C° 0 mm 1 mps 763 mmHg 65%
    09:00 +25°C° 0 mm 1 mps 763 mmHg 53%
    10:00 +28°C° 0 mm 1 mps 763 mmHg 42%
    11:00 +29°C° 0 mm 1 mps 763 mmHg 39%
    12:00 +30°C° 0 mm 2 mps 763 mmHg 36%
    13:00 +31°C° 0 mm 2 mps 763 mmHg 33%
    14:00 +30°C° 0 mm 3 mps 762 mmHg 35%
    15:00 +30°C° 0 mm 3 mps 762 mmHg 37%
    16:00 +30°C° 0 mm 3 mps 762 mmHg 39%
    17:00 +28°C° 0 mm 3 mps 762 mmHg 47%
    18:00 +27°C° 0 mm 2 mps 762 mmHg 54%
    19:00 +25°C° 0 mm 2 mps 762 mmHg 62%
    20:00 +24°C° 0 mm 2 mps 762 mmHg 65%
    21:00 +24°C° 0 mm 1 mps 762 mmHg 68%
    22:00 +23°C° 0 mm 1 mps 763 mmHg 71%
    23:00 +23°C° 0 mm 1 mps 763 mmHg 70%

    Pasado mañana, 26 Septiembre, Martes

    Tiempo Temperatura Precipitaciones Viento Presión Humedad
    00:00 +23°C° 0 mm 1 mps 762 mmHg 69%
    01:00 +22°C° 0 mm 1 mps 762 mmHg 68%
    02:00 +22°C° 0 mm 1 mps 762 mmHg 67%
    03:00 +22°C° 0 mm 1 mps 762 mmHg 66%
    04:00 +22°C° 0 mm 1 mps 762 mmHg 65%
    05:00 +22°C° 0 mm 1 mps 762 mmHg 64%
    06:00 +22°C° 0 mm 1 mps 762 mmHg 63%
    07:00 +22°C° 0 mm 1 mps 762 mmHg 62%
    08:00 +25°C° 0 mm 1 mps 762 mmHg 53%
    09:00 +27°C° 0 mm 1 mps 762 mmHg 45%
    10:00 +29°C° 0 mm 1 mps 762 mmHg 37%
    11:00 +30°C° 0 mm 1 mps 762 mmHg 33%
    12:00 +32°C° 0 mm 2 mps 762 mmHg 29%
    13:00 +34°C° 0 mm 2 mps 761 mmHg 25%
    14:00 +34°C° 0 mm 3 mps 761 mmHg 26%
    15:00 +33°C° 0 mm 3 mps 761 mmHg 27%
    16:00 +33°C° 0 mm 4 mps 760 mmHg 29%
    17:00 +30°C° 0 mm 3 mps 761 mmHg 35%
    18:00 +28°C° 0 mm 3 mps 761 mmHg 42%
    19:00 +26°C° 0 mm 3 mps 761 mmHg 48%
    20:00 +25°C° 0 mm 2 mps 762 mmHg 52%
    21:00 +25°C° 0 mm 2 mps 762 mmHg 55%
    22:00 +24°C° 0 mm 2 mps 762 mmHg 59%
    23:00 +24°C° 0 mm 1 mps 762 mmHg 59%

    27 Septiembre, Miércoles

    Tiempo Temperatura Precipitaciones Viento Presión Humedad
    00:00 +23°C° 0 mm 1 mps 762 mmHg 60%
    01:00 +23°C° 0 mm 1 mps 762 mmHg 60%
    02:00 +23°C° 0 mm 1 mps 762 mmHg 60%
    03:00 +23°C° 0 mm 1 mps 762 mmHg 61%
    04:00 +20°C° 0 mm 0 mps 761 mmHg 61%
    05:00 +21°C° 0 mm 0 mps 762 mmHg 60%
    06:00 +21°C° 0 mm 0 mps 762 mmHg 60%
    07:00 +23°C° 0 mm 1 mps 762 mmHg 59%
    08:00 +25°C° 0 mm 1 mps 762 mmHg 54%
    09:00 +27°C° 0 mm 1 mps 762 mmHg 49%
    10:00 +29°C° 0 mm 1 mps 763 mmHg 44%
    11:00 +29°C° 0 mm 2 mps 763 mmHg 43%
    12:00 +30°C° 0 mm 3 mps 763 mmHg 41%
    13:00 +32°C° 0 mm 4 mps 762 mmHg 39%
    14:00 +30°C° 0 mm 4 mps 762 mmHg 43%
    15:00 +30°C° 0 mm 4 mps 762 mmHg 46%
    16:00 +29°C° 0 mm 4 mps 762 mmHg 50%
    17:00 +28°C° 0 mm 4 mps 762 mmHg 57%
    18:00 +26°C° 0 mm 3 mps 763 mmHg 65%
    19:00 +25°C° 0 mm 2 mps 763 mmHg 72%
    20:00 +24°C° 0 mm 2 mps 764 mmHg 75%
    21:00 +23°C° 0 mm 1 mps 764 mmHg 79%
    22:00 +23°C° 0 mm 1 mps 765 mmHg 82%
    23:00 +22°C° 0 mm 1 mps 765 mmHg 83%

    28 Septiembre, Jueves

    Tiempo Temperatura Precipitaciones Viento Presión Humedad
    00:00 +20°C° 0 mm 0 mps 765 mmHg 84%
    01:00 +20°C° 0 mm 0 mps 765 mmHg 85%
    02:00 +19°C° 0 mm 0 mps 765 mmHg 85%
    03:00 +19°C° 0 mm 0 mps 764 mmHg 86%
    04:00 +19°C° 0 mm 0 mps 764 mmHg 86%
    05:00 +19°C° 0 mm 0 mps 764 mmHg 86%
    06:00 +19°C° 0 mm 0 mps 765 mmHg 85%
    07:00 +19°C° 0 mm 0 mps 765 mmHg 85%
    08:00 +23°C° 0 mm 1 mps 765 mmHg 74%
    09:00 +24°C° 0 mm 1 mps 765 mmHg 64%
    10:00 +26°C° 0 mm 1 mps 765 mmHg 53%
    11:00 +27°C° 0 mm 2 mps 765 mmHg 49%
    12:00 +28°C° 0 mm 2 mps 765 mmHg 44%
    13:00 +28°C° 0 mm 3 mps 765 mmHg 40%
    14:00 +28°C° 0 mm 3 mps 764 mmHg 42%
    15:00 +28°C° 0 mm 3 mps 764 mmHg 44%
    16:00 +27°C° 0 mm 4 mps 764 mmHg 46%
    17:00 +26°C° 0 mm 3 mps 764 mmHg 52%
    18:00 +25°C° 0 mm 2 mps 765 mmHg 58%
    19:00 +23°C° 0 mm 2 mps 765 mmHg 63%
    20:00 +23°C° 0 mm 1 mps 765 mmHg 66%
    21:00 +22°C° 0 mm 1 mps 765 mmHg 69%
    22:00 +19°C° 0 mm 0 mps 766 mmHg 72%
    23:00 +19°C° 0 mm 0 mps 765 mmHg 74%

    29 Septiembre, Viernes

    Tiempo Temperatura Precipitaciones Viento Presión Humedad
    00:00 +21°C° 0 mm 1 mps 765 mmHg 75%
    01:00 +20°C° 0 mm 1 mps 765 mmHg 77%
    02:00 +20°C° 0 mm 1 mps 765 mmHg 77%
    03:00 +20°C° 0 mm 1 mps 765 mmHg 78%
    04:00 +19°C° 0 mm 1 mps 764 mmHg 78%
    05:00 +19°C° 0 mm 1 mps 764 mmHg 76%
    06:00 +19°C° 0 mm 1 mps 765 mmHg 75%
    07:00 +20°C° 0 mm 1 mps 765 mmHg 73%
    08:00 +22°C° 0 mm 1 mps 765 mmHg 67%
    09:00 +24°C° 0 mm 1 mps 765 mmHg 60%
    10:00 +25°C° 0 mm 1 mps 765 mmHg 54%
    11:00 +26°C° 0 mm 2 mps 765 mmHg 51%
    12:00 +27°C° 0 mm 2 mps 764 mmHg 48%
    13:00 +28°C° 0 mm 3 mps 764 mmHg 46%
    14:00 +28°C° 0 mm 3 mps 764 mmHg 48%
    15:00 +27°C° 0 mm 3 mps 763 mmHg 50%
    16:00 +27°C° 0 mm 4 mps 763 mmHg 52%
    17:00 +26°C° 0 mm 3 mps 763 mmHg 59%
    18:00 +24°C° 0 mm 2 mps 763 mmHg 66%
    19:00 +23°C° 0 mm 2 mps 764 mmHg 72%
    20:00 +23°C° 0 mm 1 mps 764 mmHg 75%
    21:00 +22°C° 0 mm 1 mps 764 mmHg 78%
    22:00 +19°C° 0 mm 0 mps 764 mmHg 81%
    23:00 +21°C° 0 mm 1 mps 764 mmHg 83%
    Mostrar más